Погода в Воейкове

Россия / Орловская область     53°08′31″N   35°21′34″E
темп.,
°C
ветер,
м/с
пор.,
м/с
влажн.,
%
обл.,
%
осадки,
мм/ч
давл.,
гПа
погр.,
м
24 января, пн
пн2400:00−17св22100100 0.0 103438
03:00−16св26100100 0.1 103571
06:00−11ссв3896100 0.1 1035164
09:00−13св389989 0.1 1035136
12:00−9св3795100 0.0 1035276
15:00−6ссв379377 0.1 1033368
18:00−12с269871 0.0 103371
21:00−14св279973 0.0 103389
25 января, вт
вт2500:00−17ссв2410097 0.0 103248
03:00−18всв11100100 0.1 103118
06:00−20с1110098 0.0 10299
09:00−20ссз11100100 0.1 102810
12:00−11ююз119591 0.1 1025121
15:00−9юз239390 0.1 1022225
18:00−14ююз24100100 0.0 102145
21:00−13юз3995100 0.0 1019171
26 января, ср
ср2600:00−9юз3996100 1.1 1017286
03:00−8зюз3696100 2.4 1016260
06:00−8з2596100 0.6 1015204
09:00−9сз299788 0.8 1016230
12:00−6ссз3693100 0.1 1017415
15:00−5ссз3588100 0.1 1017534
18:00−7сз269594 0.1 1018235
21:00−12сз229989 0.1 101934
27 января, чт
чт2700:00−18сз21100100 0.1 102010
03:00−19з11100100 0.1 10209
06:00−20зюз11100100 0.0 101910
09:00−19ююз22100100 0.1 101838
12:00−11ююз359476 0.0 1016201
15:00−9ю389355 0.0 1015298
18:00−13ю3109670 0.0 1014167
21:00−11ю4119284 0.0 1012252
28 января, пт
пт2800:00−10ю41295100 0.1 1010327
03:00−10ююв4119584 0.3 1009302
06:00−9ююв51295100 0.1 1006294
09:00−7ююв51495100 0.8 1005431
12:00−4ю51196100 1.1 1003442
15:00−2ю4997100 2.4 1002429
18:000юз379899 0.4 1001511
21:00−1ююз3798100 0.6 1001333